EHI
0 0 0 0 0 0 0 0 0 0 0 0 0 0 0 1 1 2 4 5 5 10 18 26 29 27 23 20 17 16 16 19 23 25 23 19 15 12 9 9 9 7 5 4 2 1 0 0 0
0 0 0 0 0 0 0 0 0 0 0 0 0 0 0 0 1 3 6 6 5 8 15 23 28 27 23 20 17 16 17 20 23 24 22 18 15 11 10 10 8 7 7 6 3 1 0 0 0
0 0 0 0 0 0 0 0 0 0 0 0 0 0 0 1 2 5 9 9 6 6 11 20 27 26 24 23 19 18 19 21 22 21 18 15 13 11 11 10 7 7 10 9 5 1 0 0 1
0 0 0 0 0 0 0 0 0 0 0 0 0 0 1 3 5 8 11 10 6 5 10 20 26 26 24 24 22 21 21 22 21 18 14 11 10 9 9 8 6 6 7 7 4 2 0 0 1
0 0 0 0 0 0 0 0 0 0 0 0 0 1 4 7 10 13 13 10 7 7 12 22 27 23 20 20 21 22 22 23 21 17 13 10 8 7 7 7 5 4 3 2 1 1 0 0 1
0 0 0 0 0 0 0 0 0 0 0 0 0 2 7 13 16 18 16 12 9 10 14 22 24 19 14 14 16 19 21 22 21 17 13 10 7 6 6 5 4 4 2 1 0 0 0 0 0
0 0 0 0 0 0 0 0 0 0 0 0 0 3 10 17 21 20 16 13 11 12 15 18 19 15 10 9 11 14 17 19 20 18 12 8 6 6 5 4 4 4 4 2 1 1 0 0 0
0 0 0 0 0 0 0 0 0 0 0 0 0 3 12 21 24 19 15 13 12 14 15 16 15 12 9 7 8 9 12 15 16 14 9 6 5 4 3 3 3 3 3 2 2 2 1 0 0
0 0 0 0 0 0 0 0 0 0 0 0 1 5 15 25 26 21 17 14 14 16 17 16 15 13 10 8 7 6 5 7 8 6 4 4 4 3 1 1 1 1 1 1 1 1 1 0 0
0 0 0 0 0 0 0 0 0 0 0 1 3 7 18 26 26 22 18 16 16 17 17 16 15 13 10 8 8 5 2 1 1 1 1 3 3 2 1 1 0 0 0 0 0 0 0 0 0
0 0 0 0 0 0 0 0 0 0 1 2 4 9 16 22 23 20 18 16 16 17 17 15 14 13 11 10 10 8 5 3 2 2 2 3 3 2 2 1 1 1 1 0 0 0 0 0 1
0 0 0 0 0 0 0 0 1 1 1 2 5 9 13 16 16 15 13 13 14 16 16 14 13 14 14 14 14 11 9 7 6 5 5 5 4 3 2 2 2 2 2 2 1 1 0 0 1
0 0 0 0 0 0 0 0 1 2 2 3 6 8 9 9 7 7 8 11 14 15 16 15 16 19 20 19 17 14 12 11 10 7 7 6 5 3 2 2 2 2 3 3 2 1 0 0 1
0 0 0 0 0 0 0 0 1 2 4 4 4 4 5 5 4 4 7 11 13 15 17 18 21 23 23 20 17 15 14 14 12 9 8 7 5 3 3 2 2 2 3 3 2 1 1 1 1
0 0 0 0 0 0 0 1 2 3 4 3 2 1 3 4 4 5 8 11 12 15 19 22 23 23 23 21 18 16 16 15 13 11 9 9 8 6 4 3 3 3 3 4 3 3 3 3 3
0 0 0 0 0 0 0 1 2 3 2 1 1 2 4 5 4 4 8 10 12 16 23 25 24 23 23 21 20 19 18 17 15 13 11 12 12 10 7 4 2 1 3 6 6 6 6 6 6
0 0 0 0 0 0 0 1 2 2 1 1 2 3 5 5 4 5 7 10 12 17 25 28 27 25 23 22 21 19 20 21 19 17 16 16 16 13 11 7 3 1 2 6 8 8 7 8 9
0 0 0 0 0 0 0 1 2 1 1 2 3 4 4 4 4 5 6 8 11 17 25 30 31 29 27 24 22 20 21 22 22 20 20 20 18 16 14 12 9 5 4 7 9 8 8 9 11
0 0 0 0 0 0 0 1 2 1 0 1 3 4 4 3 4 4 5 7 10 17 25 30 32 32 31 29 26 24 22 21 21 21 21 22 21 18 16 15 15 12 10 11 11 9 9 10 11
0 0 0 0 0 0 0 1 2 1 0 1 2 3 4 5 5 5 6 7 10 17 25 29 30 29 30 32 31 27 24 21 20 21 22 23 21 20 18 17 18 16 14 14 13 10 8 7 7
0 0 0 0 0 0 0 1 2 2 1 0 2 3 5 6 7 9 10 11 12 16 22 25 27 28 28 30 30 29 27 24 22 22 23 22 20 20 19 18 17 17 15 14 13 11 9 6 4
0 0 0 0 0 0 0 0 1 2 1 1 2 4 5 5 7 10 12 14 14 14 18 23 28 32 31 29 29 30 30 27 25 25 25 24 21 19 18 17 17 16 15 13 12 11 10 8 5
0 0 0 0 0 0 0 0 1 2 1 1 3 5 6 5 7 10 12 13 15 15 18 24 31 37 37 32 30 30 30 28 26 26 26 25 23 19 15 14 14 14 14 12 11 11 11 9 9
0 0 0 0 0 0 0 0 1 2 1 1 3 6 7 7 9 12 13 15 18 20 21 26 33 40 42 37 33 31 31 30 29 28 26 24 21 18 14 11 10 10 11 10 10 11 11 10 10
0 0 0 0 0 0 0 0 1 2 2 2 3 5 7 9 11 13 16 20 22 24 26 30 35 41 43 41 36 33 33 33 32 29 25 22 19 16 14 11 9 9 10 11 11 11 11 10 10
0 0 0 0 0 0 0 0 1 2 2 2 2 4 6 8 11 14 17 21 23 25 28 31 34 38 40 40 39 37 35 34 32 28 24 20 17 14 13 12 11 12 12 12 11 11 10 10 10
0 0 0 0 0 0 0 0 1 1 1 1 2 3 5 7 10 12 14 17 20 23 26 28 30 33 34 35 36 36 32 29 26 22 20 18 16 13 12 12 12 12 12 11 9 9 9 9 9
0 0 0 0 0 0 0 0 0 0 1 1 2 4 4 5 6 8 9 11 14 17 20 22 25 28 29 30 30 29 25 21 18 15 14 15 15 14 11 9 8 9 10 9 8 8 7 7 7
0 0 0 0 0 0 0 0 0 1 2 3 3 4 2 2 3 5 6 7 8 11 14 17 21 23 24 25 25 24 20 16 13 11 11 13 14 14 11 7 6 7 8 8 8 7 7 6 6
0 0 0 0 0 0 0 0 1 2 3 3 4 3 1 1 2 5 7 6 6 7 11 15 19 20 21 22 23 22 19 15 12 9 10 12 13 13 10 7 6 7 7 8 9 8 7 6 6
Wind_Speed
10 9 6 6 8 4 5 5 4 4 4 4 3 3 4 6 7 6 6 9 10 12 13 14 11 10 10 10 9 9 10 10 10 10 10 10 9 9 9 8 8 8 8 9 8 8 8 8 9
7 5 7 7 6 1 5 4 4 5 4 3 2 0 1 4 5 5 7 9 11 12 13 12 12 10 10 10 10 10 10 10 10 10 10 9 9 8 8 8 7 7 7 8 8 8 8 8 8
6 7 7 5 2 3 5 4 4 3 2 0 1 1 3 4 4 4 7 11 11 11 12 13 12 10 10 10 10 10 10 10 10 10 9 9 8 8 7 7 7 7 7 8 8 8 8 7 8
6 6 6 5 1 4 4 5 3 0 2 1 1 2 4 4 3 5 11 12 12 11 12 14 11 11 10 10 10 10 10 9 9 9 9 9 8 7 7 7 7 6 7 7 7 7 8 7 8
6 6 5 2 1 2 2 3 2 2 1 1 1 0 4 5 5 9 12 12 11 11 11 14 11 10 10 10 9 9 9 9 8 9 8 8 7 7 6 6 6 6 7 7 7 7 7 6 6
5 5 5 2 1 1 1 2 2 3 1 1 2 1 4 6 7 10 12 11 11 10 10 13 12 10 10 9 9 9 9 8 8 8 8 8 7 7 6 6 6 6 6 6 6 7 6 6 6
6 5 5 4 2 1 2 3 4 4 3 1 1 1 5 8 8 10 11 10 10 10 10 10 12 11 11 9 8 8 8 8 7 7 7 7 7 7 6 6 6 6 6 6 6 6 6 6 5
6 6 6 4 4 2 1 2 3 5 4 1 2 3 2 9 10 10 11 10 10 9 9 9 9 9 10 10 10 8 8 8 7 7 7 7 8 8 7 7 6 5 5 5 5 5 5 5 5
6 8 6 4 5 4 2 4 3 3 3 2 2 2 4 12 13 12 11 10 10 9 8 8 9 8 8 8 10 9 9 9 9 9 8 7 6 7 7 6 6 5 5 4 4 4 4 4 6
7 8 6 5 7 7 6 7 4 5 5 4 3 3 8 12 13 14 13 13 12 11 9 8 8 8 8 6 7 6 7 7 7 5 7 5 4 3 3 8 6 5 5 5 4 4 6 7 5
8 9 8 7 7 9 9 8 6 7 7 4 4 5 9 12 12 13 13 12 11 11 10 9 8 8 7 6 6 4 4 4 6 6 6 4 4 3 3 4 6 6 7 5 6 7 4 3 2
10 10 10 10 8 9 9 8 8 9 7 5 4 5 10 12 13 12 12 11 11 11 11 9 9 8 8 6 5 5 4 4 4 5 6 4 3 3 3 3 3 4 3 3 3 2 2 3 3
12 10 9 10 10 10 10 10 9 8 7 4 4 7 10 12 12 11 10 10 11 11 10 10 9 8 7 6 5 5 4 4 4 4 5 5 4 4 3 2 2 3 3 3 3 3 3 4 4
8 10 12 11 10 9 10 9 9 7 5 4 5 7 9 10 11 10 10 10 11 11 11 10 10 9 8 6 5 5 5 4 4 5 5 6 4 4 4 4 3 3 3 2 3 3 3 3 3
8 11 12 9 8 7 8 10 9 5 5 5 6 7 8 9 10 10 10 11 11 11 11 10 10 9 9 8 7 5 5 5 4 4 5 6 5 4 4 3 4 3 3 3 3 4 4 4 4
10 11 10 6 5 5 9 10 4 4 6 6 6 6 8 9 9 9 9 9 10 10 11 10 9 10 9 8 7 5 5 5 4 4 5 6 6 5 5 4 4 3 4 4 3 4 4 4 4
11 10 9 6 5 6 10 10 4 5 7 7 7 7 8 8 9 9 9 9 9 10 10 10 10 10 9 8 6 6 5 5 4 4 4 5 6 6 5 4 3 4 4 4 5 4 4 4 4
9 10 10 9 4 8 11 11 7 7 8 8 7 8 8 9 9 8 8 8 8 9 9 9 10 9 8 7 6 5 5 5 5 4 4 5 5 6 6 5 4 5 4 4 4 4 4 3 3
12 13 13 9 5 9 12 12 9 8 9 8 8 8 8 8 8 8 8 8 9 9 10 10 9 9 8 6 6 6 5 5 4 4 5 6 6 6 6 5 4 5 4 4 5 5 5 4 3
14 14 13 8 4 8 11 12 10 9 9 8 7 7 7 7 8 8 9 9 10 10 10 10 10 9 9 7 5 4 4 4 4 4 4 6 6 6 6 6 5 5 4 5 5 5 5 4 4
14 13 12 10 8 10 11 12 10 8 8 7 7 7 7 7 8 8 9 10 10 10 10 9 10 10 9 8 6 5 4 4 5 5 5 5 6 7 6 6 6 5 6 5 6 6 6 5 4
13 9 11 11 11 9 8 11 7 7 8 8 7 7 7 7 8 8 9 9 9 9 10 10 10 9 9 9 8 8 6 5 5 4 4 5 7 7 6 7 7 6 5 5 6 6 5 6 5
11 8 10 11 12 12 10 11 7 6 7 7 7 6 6 6 7 8 8 8 8 8 9 9 9 9 9 9 9 8 7 5 4 4 4 5 5 6 7 6 6 6 5 5 6 5 6 6 6
9 9 10 11 11 13 9 11 8 4 5 4 5 5 5 6 6 7 7 7 7 7 7 8 9 9 9 10 9 9 8 6 5 5 5 5 5 5 7 7 6 6 5 5 6 6 7 6 5
11 10 8 9 10 10 6 10 6 2 3 4 4 4 4 5 5 6 6 7 6 6 7 7 8 8 9 10 10 9 9 8 8 7 6 5 5 5 6 6 5 5 5 5 5 5 5 6 6
11 13 10 9 9 8 6 8 3 1 1 2 3 3 3 5 5 5 5 5 6 6 6 7 8 8 9 9 9 8 9 7 6 6 5 5 4 4 4 5 5 6 5 5 5 5 5 5 6
11 12 10 12 13 12 8 7 4 2 2 3 3 3 3 4 5 5 4 4 4 5 5 6 7 7 8 8 7 7 7 6 5 5 5 4 3 3 4 4 4 5 5 5 5 5 5 5 6
12 9 8 11 11 12 10 9 3 2 2 2 2 2 2 3 4 4 4 3 3 3 4 5 6 6 6 6 6 5 6 6 5 5 5 4 4 3 4 4 4 4 4 5 5 5 5 5 6
11 12 11 10 10 11 11 5 2 2 2 2 2 0 1 2 3 3 3 3 3 3 4 4 4 5 5 5 5 4 5 5 5 5 5 4 4 4 4 4 5 5 5 5 5 6 5 6 6
11 12 12 11 11 11 11 6 4 3 2 1 1 0 1 2 2 3 3 3 3 3 4 4 4 5 5 5 5 5 4 5 5 5 4 4 4 4 5 5 5 6 5 5 6 7 6 7 7
Wind_Direction
193 204 227 240 237 218 73 67 47 57 61 49 32 4 8 10 3 40 89 135 136 141 140 150 148 149 149 147 147 143 139 137 136 134 133 130 127 124 123 123 123 127 126 124 123 123 124 126 127
199 212 234 241 259 131 83 65 50 45 50 65 90 19 6 56 46 80 124 137 146 144 145 148 142 150 150 149 148 148 146 142 139 137 136 135 132 128 124 122 123 123 125 125 124 122 118 121 129
215 237 259 255 306 14 58 52 38 54 91 73 84 46 17 50 81 101 124 146 151 147 146 136 147 151 152 151 149 149 148 145 143 140 139 137 135 132 128 126 125 122 119 122 121 120 117 121 130
236 230 239 255 46 43 16 26 13 338 159 181 254 112 96 60 68 106 135 153 152 148 143 136 153 153 154 153 151 150 148 147 146 145 143 140 137 135 134 132 130 124 119 118 121 118 117 118 126
245 261 247 227 60 39 7 4 333 293 247 190 248 90 103 98 99 125 145 155 154 148 143 139 150 154 155 155 153 151 152 150 149 147 144 142 143 143 141 136 133 128 125 125 124 123 120 124 131
248 256 263 277 42 11 8 348 306 302 276 199 236 227 95 114 134 141 149 157 154 151 147 137 149 154 156 157 157 155 155 156 154 150 150 150 147 149 148 142 138 135 131 131 128 127 128 128 130
279 280 285 297 310 284 8 341 308 304 289 274 265 237 126 135 139 146 151 155 155 157 151 151 157 158 161 160 159 157 157 157 155 152 151 152 150 151 150 149 147 146 142 139 135 135 137 139 142
285 274 259 259 275 300 8 313 324 312 318 358 251 258 140 139 146 151 153 157 157 160 160 159 163 160 169 165 160 161 159 156 156 156 155 157 161 161 160 166 153 155 151 147 145 146 146 147 152
258 258 265 281 287 304 306 288 306 303 275 239 249 330 82 136 152 158 159 162 163 167 168 168 166 166 172 165 155 168 169 166 172 168 164 182 182 169 172 151 141 156 157 154 156 162 160 175 170
246 265 281 303 296 300 296 288 291 261 247 229 197 134 129 152 165 172 172 172 173 174 177 175 173 169 172 164 160 176 179 168 186 169 171 187 176 178 168 133 148 157 162 167 167 180 197 219 188
247 267 290 286 289 292 286 282 273 268 266 270 242 181 165 173 180 185 183 180 176 175 178 178 176 175 174 170 168 173 177 169 180 174 180 180 182 177 176 163 165 176 184 188 175 202 214 212 208
253 264 278 284 289 281 282 280 271 265 281 310 265 205 185 189 192 193 190 183 177 178 181 182 178 178 184 177 173 178 180 174 177 170 190 185 186 189 185 192 179 185 188 189 208 213 197 212 215
248 267 274 274 272 274 272 265 269 264 269 262 225 202 196 197 198 197 193 185 182 183 183 183 184 179 182 181 191 181 184 182 174 181 185 196 195 191 187 190 201 207 189 188 208 215 204 217 213
275 278 275 270 266 258 260 262 250 253 246 234 212 205 199 200 201 195 193 190 188 188 187 182 188 183 185 188 191 187 190 186 188 185 187 198 202 191 194 193 198 210 208 204 207 206 214 227 227
267 270 264 254 253 251 260 249 237 240 235 230 216 203 199 199 199 199 197 196 191 188 186 185 187 186 190 194 196 192 192 193 195 187 187 195 204 195 205 203 203 202 203 199 211 213 217 221 222
244 253 257 244 246 241 251 260 224 204 228 234 220 205 201 198 202 198 196 196 190 187 185 187 190 186 191 198 201 198 196 195 195 193 190 195 202 201 210 212 208 199 210 208 210 223 222 221 229
229 248 262 259 227 247 248 267 256 227 232 236 222 210 208 202 205 199 197 195 190 187 185 187 193 189 189 193 198 203 195 201 201 195 197 190 198 203 214 215 207 210 217 219 227 212 230 226 234
259 264 264 269 251 256 259 266 265 248 241 237 226 216 213 213 209 201 197 193 189 187 186 188 190 190 190 189 191 200 201 200 201 200 197 195 198 205 220 213 205 222 225 227 232 227 229 242 242
275 274 274 280 287 270 268 270 266 254 248 241 230 221 219 220 208 197 196 195 190 189 188 190 191 185 189 191 196 195 198 199 200 203 195 204 211 208 220 228 204 225 227 233 233 232 223 227 229
260 264 269 275 267 272 275 272 262 249 245 244 239 231 226 218 203 197 197 197 196 192 191 192 193 188 195 192 197 198 199 202 202 209 198 210 215 217 215 226 226 223 229 228 232 233 240 229 215
252 260 271 280 280 251 268 261 238 233 242 237 238 235 226 217 209 201 200 199 199 196 193 194 194 191 196 190 190 184 190 202 197 204 202 210 215 218 225 221 232 227 231 223 228 228 232 237 222
253 258 268 272 269 265 255 278 252 230 235 229 230 228 225 212 209 203 199 199 199 196 192 193 193 193 192 192 198 195 200 206 207 207 200 202 210 218 220 223 227 229 232 227 228 222 229 236 234
259 272 265 263 261 267 249 265 266 230 243 231 225 227 224 210 206 200 198 198 196 193 191 190 191 194 192 197 199 202 209 211 204 202 198 209 205 215 220 219 222 226 233 230 235 225 229 229 239
250 254 251 247 250 252 252 261 270 246 257 249 223 221 214 206 196 194 192 190 190 189 191 191 191 194 192 196 200 204 209 210 207 206 200 206 205 211 216 218 219 225 230 226 227 225 224 233 237
229 243 245 239 236 250 243 255 268 288 284 264 240 207 196 192 188 184 187 188 188 189 190 191 188 192 194 196 201 203 207 208 209 210 206 212 213 213 212 219 218 225 226 228 228 226 232 227 230
230 238 251 266 267 270 239 254 268 189 257 268 237 204 180 181 185 183 186 190 192 191 190 191 191 194 194 195 199 202 206 211 210 210 215 215 222 222 212 217 218 223 223 223 221 229 226 222 228
231 236 257 267 269 269 254 249 224 200 233 237 222 193 177 180 183 182 181 188 193 194 193 193 194 194 194 193 192 195 201 210 208 201 214 215 217 217 208 211 216 222 222 224 222 231 230 229 233
247 248 241 250 262 268 266 256 259 228 262 243 229 215 181 182 182 176 178 186 192 195 191 191 192 196 194 192 192 189 194 201 205 207 207 211 213 211 206 211 214 218 218 221 226 230 223 227 234
223 231 240 252 257 267 274 272 30 335 325 295 290 276 173 175 172 170 177 184 178 178 182 181 188 191 190 188 184 188 195 197 201 205 206 205 208 207 209 213 214 216 213 215 221 234 227 229 235
242 238 235 245 251 252 270 276 76 50 8 314 306 47 125 161 174 170 175 174 175 180 182 180 185 190 189 182 183 191 195 196 200 202 203 202 207 213 215 219 220 223 220 219 223 232 233 235 239